| time (UTC) | temp C | wind direction | speed KPH | gust KPH | rain 1hr cm | rain 24hr cm | rain mn cm | humidity % | barometer mb |
| 20260504220848 | 19 | 171 | 6.4 | 6.4 | 0.00 | 0.00 | 0.00 | 47 | 1007.5 |
| 20260504220344 | 20 | 115 | 12.9 | 22.5 | 0.00 | 0.00 | 0.00 | 45 | 1007.4 |
| 20260504215841 | 19 | 138 | 6.4 | 9.7 | 0.00 | 0.00 | 0.00 | 46 | 1007.5 |
| 20260504215338 | 20 | 236 | 3.2 | 4.8 | 0.00 | 0.00 | 0.00 | 46 | 1007.5 |
| 20260504214834 | 20 | 186 | 4.8 | 6.4 | 0.00 | 0.00 | 0.00 | 44 | 1007.7 |
| 20260504214331 | 20 | 209 | 6.4 | 6.4 | 0.00 | 0.00 | 0.00 | 44 | 1007.4 |
| 20260504213828 | 19 | 138 | 1.6 | 3.2 | 0.00 | 0.00 | 0.00 | 44 | 1007.4 |
| 20260504213323 | 19 | 208 | 3.2 | 4.8 | 0.00 | 0.00 | 0.00 | 45 | 1007.4 |
| 20260504212821 | 18 | 157 | 4.8 | 6.4 | 0.00 | 0.00 | 0.00 | 46 | 1007.7 |
| 20260504212317 | 19 | 190 | 8.0 | 11.3 | 0.00 | 0.00 | 0.00 | 46 | 1007.5 |
| 20260504211815 | 20 | 194 | 1.6 | 3.2 | 0.00 | 0.00 | 0.00 | 43 | 1007.4 |
| 20260504211311 | 20 | 193 | 3.2 | 3.2 | 0.00 | 0.00 | 0.00 | 43 | 1007.4 |
| 20260504210808 | 21 | 224 | 8.0 | 12.9 | 0.00 | 0.00 | 0.00 | 41 | 1007.4 |
| 20260504210306 | 20 | 272 | 1.6 | 3.2 | 0.00 | 0.00 | 0.00 | 41 | 1007.7 |
| 20260504205803 | 19 | 114 | 4.8 | 6.4 | 0.00 | 0.00 | 0.00 | 42 | 1007.4 |
| 20260504205300 | 20 | 245 | 4.8 | 4.8 | 0.00 | 0.00 | 0.00 | 42 | 1007.3 |
| 20260504204758 | 20 | 192 | 3.2 | 4.8 | 0.00 | 0.00 | 0.00 | 42 | 1007.4 |
| 20260504204256 | 20 | 231 | 4.8 | 4.8 | 0.00 | 0.00 | 0.00 | 42 | 1007.7 |
| 20260504203755 | 19 | 161 | 3.2 | 3.2 | 0.00 | 0.00 | 0.00 | 42 | 1007.5 |
| 20260504203252 | 20 | 229 | 6.4 | 6.4 | 0.00 | 0.00 | 0.00 | 42 | 1007.4 |
| 20260504202746 | 20 | 118 | 4.8 | 4.8 | 0.00 | 0.00 | 0.00 | 41 | 1007.7 |
| 20260504202244 | 20 | 190 | 6.4 | 6.4 | 0.00 | 0.00 | 0.00 | 42 | 1007.8 |
| 20260504201741 | 20 | 222 | 1.6 | 1.6 | 0.00 | 0.00 | 0.00 | 43 | 1007.8 |
| 20260504201238 | 20 | 237 | 4.8 | 9.7 | 0.00 | 0.00 | 0.00 | 43 | 1007.8 |
| 20260504200736 | 20 | 165 | 3.2 | 3.2 | 0.00 | 0.00 | 0.00 | 42 | 1007.9 |
| 20260504200231 | 20 | 175 | 3.2 | 3.2 | 0.00 | 0.00 | 0.00 | 42 | 1008.0 |
| 20260504195728 | 20 | 151 | 1.6 | 3.2 | 0.00 | 0.00 | 0.00 | 45 | 1007.9 |
| 20260504195224 | 19 | 179 | 9.7 | 11.3 | 0.00 | 0.00 | 0.00 | 44 | 1008.0 |
| 20260504194721 | 20 | 307 | 6.4 | 6.4 | 0.00 | 0.00 | 0.00 | 42 | 1008.0 |
| 20260504194217 | 21 | 273 | 6.4 | 9.7 | 0.00 | 0.00 | 0.00 | 41 | 1008.1 |
| 20260504193714 | 20 | 203 | 4.8 | 4.8 | 0.00 | 0.00 | 0.00 | 41 | 1008.1 |
| 20260504193212 | 20 | 239 | 3.2 | 4.8 | 0.00 | 0.00 | 0.00 | 41 | 1008.3 |
| 20260504192710 | 20 | 267 | 9.7 | 12.9 | 0.00 | 0.00 | 0.00 | 41 | 1008.2 |
| 20260504192208 | 19 | 202 | 6.4 | 11.3 | 0.00 | 0.00 | 0.00 | 41 | 1008.5 |
| 20260504191706 | 20 | 324 | 9.7 | 12.9 | 0.00 | 0.00 | 0.00 | 40 | 1008.6 |
| 20260504191202 | 20 | 285 | 3.2 | 3.2 | 0.00 | 0.00 | 0.00 | 38 | 1008.5 |
| 20260504190658 | 20 | 147 | 3.2 | 4.8 | 0.00 | 0.00 | 0.00 | 41 | 1008.5 |
| 20260504190154 | 20 | 161 | 3.2 | 3.2 | 0.00 | 0.00 | 0.00 | 40 | 1008.6 |
| 20260504185651 | 20 | 200 | 3.2 | 3.2 | 0.00 | 0.00 | 0.00 | 38 | 1008.4 |
| 20260504185147 | 20 | 224 | 8.0 | 9.7 | 0.00 | 0.00 | 0.00 | 39 | 1008.6 |
| 20260504184644 | 20 | 225 | 0.0 | 1.6 | 0.00 | 0.00 | 0.00 | 38 | 1008.8 |
| 20260504184139 | 20 | 199 | 4.8 | 4.8 | 0.00 | 0.00 | 0.00 | 37 | 1008.9 |
| 20260504183637 | 19 | 195 | 6.4 | 6.4 | 0.00 | 0.00 | 0.00 | 40 | 1008.8 |
| 20260504183134 | 20 | 175 | 8.0 | 12.9 | 0.00 | 0.00 | 0.00 | 38 | 1008.6 |
| 20260504182631 | 20 | 211 | 3.2 | 6.4 | 0.00 | 0.00 | 0.00 | 38 | 1008.9 |
| 20260504182128 | 20 | 215 | 1.6 | 3.2 | 0.00 | 0.00 | 0.00 | 37 | 1008.7 |
| 20260504181626 | 20 | 242 | 8.0 | 9.7 | 0.00 | 0.00 | 0.00 | 39 | 1008.9 |
| 20260504181123 | 19 | 23 | 4.8 | 9.7 | 0.00 | 0.00 | 0.00 | 38 | 1009.1 |
| 20260504180622 | 20 | 206 | 6.4 | 9.7 | 0.00 | 0.00 | 0.00 | 39 | 1009.3 |
| 20260504180121 | 20 | 177 | 6.4 | 6.4 | 0.00 | 0.00 | 0.00 | 38 | 1009.3 |
| 20260504175617 | 20 | 149 | 8.0 | 11.3 | 0.00 | 0.00 | 0.00 | 40 | 1009.3 |
| 20260504175114 | 20 | 113 | 6.4 | 9.7 | 0.00 | 0.00 | 0.00 | 40 | 1009.1 |
| 20260504174612 | 20 | 197 | 6.4 | 11.3 | 0.00 | 0.00 | 0.00 | 43 | 1009.1 |
| 20260504174108 | 20 | 219 | 6.4 | 6.4 | 0.00 | 0.00 | 0.00 | 41 | 1009.3 |
| 20260504173605 | 19 | 312 | 4.8 | 6.4 | 0.00 | 0.00 | 0.00 | 41 | 1009.5 |
| 20260504173103 | 20 | 292 | 4.8 | 4.8 | 0.00 | 0.00 | 0.00 | 42 | 1009.5 |
| 20260504172559 | 18 | 119 | 9.7 | 11.3 | 0.00 | 0.00 | 0.00 | 42 | 1009.4 |
| 20260504172056 | 18 | 151 | 9.7 | 11.3 | 0.00 | 0.00 | 0.00 | 43 | 1009.4 |
| 20260504171552 | 18 | 252 | 6.4 | 11.3 | 0.00 | 0.00 | 0.00 | 42 | 1009.5 |
| 20260504171049 | 18 | 208 | 4.8 | 6.4 | 0.00 | 0.00 | 0.00 | 43 | 1009.5 |
| 20260504170545 | 18 | 267 | 3.2 | 4.8 | 0.00 | 0.00 | 0.00 | 44 | 1009.6 |
| 20260504150929 | 15 | 227 | 4.8 | 4.8 | 0.00 | 0.00 | 0.00 | 49 | 1010.5 |
| 20260504150426 | 15 | 203 | 3.2 | 4.8 | 0.00 | 0.00 | 0.00 | 48 | 1010.5 |
| 20260504140852 | 12 | 194 | 1.6 | 3.2 | 0.00 | 0.00 | 0.00 | 52 | 1010.8 |
| 20260504140348 | 12 | 197 | 3.2 | 6.4 | 0.00 | 0.00 | 0.00 | 53 | 1010.9 |
| 20260504130817 | 10 | 180 | 1.6 | 3.2 | 0.00 | 0.00 | 0.00 | 58 | 1010.9 |
| 20260504130313 | 9 | 179 | 3.2 | 3.2 | 0.00 | 0.00 | 0.00 | 57 | 1011.1 |
| 20260504120237 | 7 | 209 | 3.2 | 3.2 | 0.00 | 0.00 | 0.00 | 59 | 1011.2 |
| 20260504110704 | 6 | 201 | 1.6 | 1.6 | 0.00 | 0.00 | 0.00 | 63 | 1010.9 |
| 20260504110201 | 6 | 160 | 3.2 | 3.2 | 0.00 | 0.00 | 0.00 | 65 | 1011.0 |
| 20260504100125 | 5 | 167 | 1.6 | 1.6 | 0.00 | 0.00 | 0.00 | 66 | 1011.3 |
| 20260504081518 | 5 | 209 | 1.6 | 1.6 | 0.00 | 0.00 | 0.00 | 65 | 1011.5 |
| 20260504081013 | 5 | 208 | 0.0 | 0.0 | 0.00 | 0.00 | 0.00 | 65 | 1011.5 |
| 20260504080510 | 5 | 209 | 1.6 | 1.6 | 0.00 | 0.00 | 0.00 | 65 | 1011.4 |
| 20260504050328 | 5 | 189 | 1.6 | 1.6 | 0.00 | 0.00 | 0.00 | 61 | 1012.7 |
| 20260504045825 | 5 | 193 | 0.0 | 1.6 | 0.00 | 0.00 | 0.00 | 61 | 1012.8 |
| 20260504045320 | 5 | 179 | 0.0 | 1.6 | 0.00 | 0.00 | 0.00 | 60 | 1012.7 |
| 20260504044817 | 6 | 196 | 0.0 | 1.6 | 0.00 | 0.00 | 0.00 | 60 | 1012.8 |
| 20260504044315 | 5 | 189 | 1.6 | 1.6 | 0.00 | 0.00 | 0.00 | 61 | 1012.6 |
| 20260504043812 | 5 | 212 | 0.0 | 1.6 | 0.00 | 0.00 | 0.00 | 60 | 1012.7 |
| 20260504043309 | 6 | 203 | 1.6 | 1.6 | 0.00 | 0.00 | 0.00 | 60 | 1012.8 |
| 20260504042807 | 6 | 211 | 1.6 | 1.6 | 0.00 | 0.00 | 0.00 | 60 | 1012.7 |
| 20260504042304 | 6 | 224 | 1.6 | 3.2 | 0.00 | 0.00 | 0.00 | 59 | 1012.7 |
| 20260504041759 | 6 | 212 | 0.0 | 0.0 | 0.00 | 0.00 | 0.00 | 60 | 1012.7 |
| 20260504041255 | 6 | 212 | 1.6 | 1.6 | 0.00 | 0.00 | 0.00 | 59 | 1012.5 |
| 20260504040751 | 6 | 209 | 0.0 | 1.6 | 0.00 | 0.00 | 0.00 | 59 | 1012.7 |
| 20260504040249 | 6 | 200 | 0.0 | 0.0 | 0.00 | 0.00 | 0.00 | 60 | 1012.9 |
| 20260504035745 | 6 | 211 | 0.0 | 0.0 | 0.00 | 0.00 | 0.00 | 59 | 1012.7 |
| 20260504035242 | 6 | 221 | 1.6 | 1.6 | 0.00 | 0.00 | 0.00 | 59 | 1012.7 |
| 20260504034740 | 6 | 257 | 3.2 | 4.8 | 0.00 | 0.00 | 0.00 | 59 | 1012.7 |
| 20260504034237 | 6 | 209 | 0.0 | 1.6 | 0.00 | 0.00 | 0.00 | 59 | 1012.7 |
| 20260504033735 | 6 | 199 | 0.0 | 1.6 | 0.00 | 0.00 | 0.00 | 59 | 1012.8 |
| 20260504033232 | 6 | 221 | 4.8 | 4.8 | 0.00 | 0.00 | 0.00 | 58 | 1012.7 |
| 20260504032729 | 6 | 232 | 1.6 | 3.2 | 0.00 | 0.00 | 0.00 | 58 | 1012.7 |
| 20260504032226 | 6 | 230 | 1.6 | 3.2 | 0.00 | 0.00 | 0.00 | 57 | 1012.6 |
| 20260504031722 | 6 | 219 | 1.6 | 1.6 | 0.00 | 0.00 | 0.00 | 58 | 1012.8 |
| 20260504031220 | 6 | 219 | 1.6 | 1.6 | 0.00 | 0.00 | 0.00 | 58 | 1012.7 |
| 20260504030715 | 7 | 198 | 1.6 | 3.2 | 0.00 | 0.00 | 0.00 | 57 | 1012.6 |
| 20260504030213 | 6 | 227 | 3.2 | 4.8 | 0.00 | 0.00 | 0.00 | 58 | 1012.8 |
| 20260504025709 | 6 | 228 | 1.6 | 1.6 | 0.00 | 0.00 | 0.00 | 59 | 1012.7 |
| 20260504025206 | 6 | 214 | 1.6 | 3.2 | 0.00 | 0.00 | 0.00 | 59 | 1012.7 |
| 20260504024704 | 6 | 208 | 0.0 | 1.6 | 0.00 | 0.00 | 0.00 | 58 | 1012.8 |
| 20260504024200 | 6 | 203 | 1.6 | 1.6 | 0.00 | 0.00 | 0.00 | 58 | 1012.7 |
| 20260504023656 | 7 | 215 | 0.0 | 1.6 | 0.00 | 0.00 | 0.00 | 56 | 1012.8 |
| 20260504023152 | 6 | 216 | 3.2 | 3.2 | 0.00 | 0.00 | 0.00 | 58 | 1012.7 |
| 20260504022649 | 6 | 194 | 1.6 | 3.2 | 0.00 | 0.00 | 0.00 | 57 | 1012.9 |
| 20260504022144 | 6 | 203 | 1.6 | 3.2 | 0.00 | 0.00 | 0.00 | 57 | 1012.8 |
| 20260504021643 | 6 | 201 | 3.2 | 3.2 | 0.00 | 0.00 | 0.00 | 57 | 1012.9 |
| 20260504021139 | 7 | 174 | 0.0 | 3.2 | 0.00 | 0.00 | 0.00 | 58 | 1013.0 |
| 20260504020637 | 7 | 220 | 3.2 | 3.2 | 0.00 | 0.00 | 0.00 | 55 | 1012.9 |
| 20260504020132 | 7 | 205 | 1.6 | 1.6 | 0.00 | 0.00 | 0.00 | 57 | 1012.9 |
| 20260504015629 | 6 | 237 | 1.6 | 1.6 | 0.00 | 0.00 | 0.00 | 57 | 1012.8 |
| 20260504015125 | 6 | 231 | 1.6 | 1.6 | 0.00 | 0.00 | 0.00 | 56 | 1012.7 |
| 20260504014621 | 7 | 215 | 1.6 | 3.2 | 0.00 | 0.00 | 0.00 | 57 | 1012.8 |
| 20260504014119 | 7 | 207 | 0.0 | 0.0 | 0.00 | 0.00 | 0.00 | 56 | 1012.7 |
| 20260504013616 | 7 | 219 | 1.6 | 3.2 | 0.00 | 0.00 | 0.00 | 56 | 1012.8 |
| 20260504013113 | 7 | 211 | 0.0 | 0.0 | 0.00 | 0.00 | 0.00 | 56 | 1012.7 |
| 20260504012610 | 7 | 211 | 0.0 | 1.6 | 0.00 | 0.00 | 0.00 | 55 | 1012.5 |
| 20260504012108 | 7 | 210 | 1.6 | 1.6 | 0.00 | 0.00 | 0.00 | 56 | 1012.5 |
| 20260504011605 | 7 | 208 | 1.6 | 1.6 | 0.00 | 0.00 | 0.00 | 54 | 1012.6 |
| 20260504011101 | 7 | 182 | 1.6 | 1.6 | 0.00 | 0.00 | 0.00 | 55 | 1012.4 |
| 20260504010556 | 7 | 186 | 3.2 | 3.2 | 0.00 | 0.00 | 0.00 | 53 | 1012.4 |
| 20260504010053 | 7 | 206 | 1.6 | 3.2 | 0.00 | 0.00 | 0.00 | 53 | 1012.7 |
| 20260504005550 | 7 | 213 | 0.0 | 1.6 | 0.00 | 0.00 | 0.00 | 53 | 1012.6 |
| 20260504005047 | 7 | 201 | 1.6 | 1.6 | 0.00 | 0.00 | 0.00 | 53 | 1012.5 |
| 20260504004545 | 7 | 208 | 1.6 | 1.6 | 0.00 | 0.00 | 0.00 | 52 | 1012.4 |
| 20260504004042 | 7 | 188 | 1.6 | 3.2 | 0.00 | 0.00 | 0.00 | 51 | 1012.1 |
| 20260504003538 | 8 | 218 | 1.6 | 1.6 | 0.00 | 0.00 | 0.00 | 51 | 1012.5 |
| 20260504003035 | 8 | 231 | 3.2 | 3.2 | 0.00 | 0.00 | 0.00 | 50 | 1012.5 |
| 20260504002531 | 8 | 222 | 1.6 | 1.6 | 0.00 | 0.00 | 0.00 | 51 | 1012.4 |
| 20260504002029 | 8 | 209 | 0.0 | 1.6 | 0.00 | 0.00 | 0.00 | 51 | 1012.4 |
| 20260504001527 | 8 | 199 | 1.6 | 3.2 | 0.00 | 0.00 | 0.00 | 50 | 1012.3 |
| 20260504001022 | 8 | 217 | 1.6 | 1.6 | 0.00 | 0.00 | 0.00 | 50 | 1012.5 |
| 20260504000520 | 8 | 210 | 1.6 | 1.6 | 0.00 | 0.00 | 0.00 | 50 | 1012.4 |
| 20260504000017 | 8 | 250 | 1.6 | 1.6 | 0.00 | 0.00 | 0.00 | 49 | 1012.1 |
| 20260503235515 | 8 | 216 | 1.6 | 3.2 | 0.00 | 0.00 | 0.00 | 48 | 1012.3 |
| 20260503235011 | 9 | 215 | 1.6 | 1.6 | 0.00 | 0.00 | 0.00 | 48 | 1012.3 |
| 20260503234509 | 9 | 236 | 3.2 | 4.8 | 0.00 | 0.00 | 0.00 | 47 | 1012.0 |
| 20260503234007 | 9 | 255 | 6.4 | 9.7 | 0.00 | 0.00 | 0.00 | 47 | 1012.4 |
| 20260503233503 | 9 | 203 | 1.6 | 1.6 | 0.00 | 0.00 | 0.00 | 49 | 1012.5 |
| 20260503232959 | 9 | 205 | 3.2 | 3.2 | 0.00 | 0.00 | 0.00 | 47 | 1012.5 |
| 20260503232456 | 10 | 179 | 3.2 | 4.8 | 0.00 | 0.00 | 0.00 | 46 | 1012.4 |
| 20260503231954 | 10 | 207 | 3.2 | 3.2 | 0.00 | 0.00 | 0.00 | 46 | 1012.5 |
| 20260503231451 | 10 | 330 | 3.2 | 3.2 | 0.00 | 0.00 | 0.00 | 47 | 1012.5 |
| 20260503230948 | 10 | 194 | 1.6 | 3.2 | 0.00 | 0.00 | 0.00 | 45 | 1012.4 |
| 20260503230444 | 10 | 288 | 6.4 | 6.4 | 0.00 | 0.00 | 0.00 | 45 | 1012.1 |
| 20260503225942 | 10 | 296 | 4.8 | 9.7 | 0.00 | 0.00 | 0.00 | 45 | 1012.3 |
| 20260503225439 | 10 | 248 | 4.8 | 6.4 | 0.00 | 0.00 | 0.00 | 44 | 1012.3 |
| 20260503224934 | 10 | 246 | 1.6 | 1.6 | 0.00 | 0.00 | 0.00 | 45 | 1012.3 |
| 20260503224431 | 10 | 228 | 3.2 | 4.8 | 0.00 | 0.00 | 0.00 | 45 | 1012.3 |
| 20260503223929 | 10 | 299 | 6.4 | 6.4 | 0.00 | 0.00 | 0.00 | 44 | 1012.5 |
| 20260503223427 | 10 | 308 | 6.4 | 12.9 | 0.00 | 0.00 | 0.00 | 45 | 1012.4 |
| 20260503222922 | 10 | 211 | 3.2 | 4.8 | 0.00 | 0.00 | 0.00 | 44 | 1012.4 |
| 20260503222421 | 10 | 216 | 4.8 | 4.8 | 0.00 | 0.00 | 0.00 | 44 | 1012.5 |
| 20260503221919 | 11 | 164 | 3.2 | 3.2 | 0.00 | 0.00 | 0.00 | 43 | 1012.3 |
| 20260503221417 | 11 | 223 | 1.6 | 3.2 | 0.00 | 0.00 | 0.00 | 44 | 1012.3 |